Regional Weather Roundup
Issued by NWS

Home | Current Version | Previous Version | Graphics & Text | Print | Product List | Glossary On
Versions: 1 2 3 4 5 6 7 8 9 10 11 12 13 14 15 16 17 18 19 20 21 22 23 24 25 26 27 28 29 30 31 32 33 34 35 36 37 38 39 40 41 42 43 44 45 46 47 48
000
ASUS45 KSLC 250910
RWRUT

UTAH REGIONAL WEATHER ROUNDUP
NATIONAL WEATHER SERVICE SALT LAKE CITY UT
200 AM MST SUN JAN 25 2015

UTZ001>011-023>025-251000-

NORTHERN UTAH

CITY           SKY/WX    TMP DP  RH WIND       PRES   REMARKS
BRIGHAM CITY   CLOUDY    33  29  86 CALM      30.48S
HILL AFB       CLOUDY    35  23  61 S2        30.46R
LOGAN          CLOUDY    32  29  88 SW3       30.46F
OGDEN          CLOUDY    35  27  72 W5        30.46R WCI  31
PROVO AIRPORT  CLOUDY    34  27  75 CALM      30.46F
SALT LAKE CITY CLOUDY    36  28  73 CALM      30.46S
VERNAL         PTCLDY    20  14  77 CALM      30.39R
WENDOVER       CLEAR     25  19  80 SE3       30.46S
HEBER CITY     PTCLDY    27  23  86 CALM      30.45S THUNDER
WEST JORDAN    CLOUDY    37  25  60 S5        30.46F WCI  34

$$

UTZ012>022-026-027-251000-

SOUTHERN/CENTRAL UTAH

CITY           SKY/WX    TMP DP  RH WIND       PRES   REMARKS
BLANDING       CLEAR     32  19  58 CALM      30.35S
BRYCE CANYON   CLEAR     22  18  85 NW7       30.38S WCI  13
CEDAR CITY     CLEAR     25  20  81 SW6       30.38F WCI  18
DELTA          CLOUDY    36  27  72 NE5       30.44S WCI  32
MILFORD        CLOUDY    37  24  59 N12       30.41F WCI  29
MOAB/CYNLANDS  CLEAR     25  20  81 CALM      30.37S
PRICE          CLEAR     31  15  52 E7        30.34F WCI  24
ST GEORGE      SUNNY     46  25  42 NW3       30.30S

$$

REGIONAL REPORTS     COLORADO/ARIZONA

CITY           SKY/WX    TMP DP  RH WIND       PRES   REMARKS
CRAIG, CO        N/A     15  11  83 CALM      30.35R
GRAND JUNCTION CLEAR     25  16  68 E3        30.37F
RIFLE          MOCLDY    23  17  78 CALM      30.40R
MONTROSE       PTCLDY    19  13  77 SE7       30.41R WCI  10
CORTEZ         CLEAR     21  15  78 CALM      30.27F
PAGE, AZ       NOT AVBL
GRAND CANYON   CLEAR     21  15  78 CALM      30.32S
KINGMAN        CLEAR     44  20  38 NE10      30.23F
FLAGSTAFF      CLEAR     37  11  34 E10       30.29R WCI  30

$$

REGIONAL REPORTS    NEVADA/IDAHO/WYOMING

CITY           SKY/WX    TMP DP  RH WIND       PRES   REMARKS
LAS VEGAS, NV  CLEAR     50  22  33 S10       30.21F
ELY            CLEAR     27  23  85 W5        30.44F WCI  22
ELKO           CLEAR     27  24  89 NE3       30.45S
POCATELLO, ID  CLOUDY    30  29  96 NE6       30.45F WCI  24
BURLEY         CLOUDY    32  29  88 NW3       30.42F
EVANSTON, WY   CLOUDY    30  27  88 SW14      30.41R WCI  19
ROCK SPRINGS   CLEAR     32  26  78 W30G37    30.32R WCI  18
KEMMERER       CLOUDY    32  30  93 CALM      30.40R

$$


USA.gov is the U.S. government's official web portal to all federal, state and local government web resources and services.